Year,Month,Day,Hour,Minute,Value (Times are PST for temperature in C)
2017,09,05,00,00,23.20
2017,09,05,00,01,23.20
2017,09,05,00,02,23.20
2017,09,05,00,03,23.20
2017,09,05,00,04,23.20
2017,09,05,00,05,23.20
2017,09,05,00,06,23.20
2017,09,05,00,07,23.20
2017,09,05,00,08,23.10
2017,09,05,00,09,23.10
2017,09,05,00,10,23.00
2017,09,05,00,11,23.00
2017,09,05,00,12,22.90
2017,09,05,00,13,22.90
2017,09,05,00,14,22.90
2017,09,05,00,15,22.90
2017,09,05,00,16,22.90
2017,09,05,00,17,22.90
2017,09,05,00,18,22.90
2017,09,05,00,19,22.80
2017,09,05,00,20,22.80
2017,09,05,00,21,22.90
2017,09,05,00,22,22.90
2017,09,05,00,23,22.90
2017,09,05,00,24,22.90
2017,09,05,00,25,22.90
2017,09,05,00,26,22.90
2017,09,05,00,27,22.80
2017,09,05,00,28,22.80
2017,09,05,00,29,22.80
2017,09,05,00,30,22.80
2017,09,05,00,31,22.80
2017,09,05,00,32,22.80
2017,09,05,00,33,22.70
2017,09,05,00,34,22.70
2017,09,05,00,35,22.70
2017,09,05,00,36,22.60
2017,09,05,00,37,22.60
2017,09,05,00,38,22.60
2017,09,05,00,39,22.60
2017,09,05,00,40,22.60
2017,09,05,00,41,22.50
2017,09,05,00,42,22.50
2017,09,05,00,43,22.50
2017,09,05,00,44,22.40
2017,09,05,00,45,22.40
2017,09,05,00,46,22.40
2017,09,05,00,47,22.40
2017,09,05,00,48,22.40
2017,09,05,00,49,22.40
2017,09,05,00,50,22.40
2017,09,05,00,51,22.40
2017,09,05,00,52,22.30
2017,09,05,00,53,22.30
2017,09,05,00,54,22.30
2017,09,05,00,55,22.30
2017,09,05,00,56,22.20
2017,09,05,00,57,22.20
2017,09,05,00,58,22.10
2017,09,05,00,59,22.10
2017,09,05,01,00,22.00
2017,09,05,01,01,22.00
2017,09,05,01,02,21.90
2017,09,05,01,03,21.90
2017,09,05,01,04,21.80
2017,09,05,01,05,21.80
2017,09,05,01,06,21.80
2017,09,05,01,07,21.80
2017,09,05,01,08,21.80
2017,09,05,01,09,21.80
2017,09,05,01,10,21.70
2017,09,05,01,11,21.70
2017,09,05,01,12,21.70
2017,09,05,01,13,21.80
2017,09,05,01,14,21.80
2017,09,05,01,15,21.80
2017,09,05,01,16,21.80
2017,09,05,01,17,21.80
2017,09,05,01,18,21.80
2017,09,05,01,19,21.80
2017,09,05,01,20,21.80
2017,09,05,01,21,21.80
2017,09,05,01,22,21.80
2017,09,05,01,23,21.90
2017,09,05,01,24,21.80
2017,09,05,01,25,21.80
2017,09,05,01,26,21.80
2017,09,05,01,27,21.80
2017,09,05,01,28,21.80
2017,09,05,01,29,21.80
2017,09,05,01,30,21.80
2017,09,05,01,31,21.80
2017,09,05,01,32,21.70
2017,09,05,01,33,21.70
2017,09,05,01,34,21.70
2017,09,05,01,35,21.70
2017,09,05,01,36,21.70
2017,09,05,01,37,21.70
2017,09,05,01,38,21.70
2017,09,05,01,39,21.70
2017,09,05,01,40,21.70
2017,09,05,01,41,21.70
2017,09,05,01,42,21.70
2017,09,05,01,43,21.70
2017,09,05,01,44,21.70
2017,09,05,01,45,21.70
2017,09,05,01,46,21.70
2017,09,05,01,47,21.70
2017,09,05,01,48,21.70
2017,09,05,01,49,21.70
2017,09,05,01,50,21.70
2017,09,05,01,51,21.70
2017,09,05,01,52,21.70
2017,09,05,01,53,21.80
2017,09,05,01,54,21.80
2017,09,05,01,55,21.80
2017,09,05,01,56,21.80
2017,09,05,01,57,21.80
2017,09,05,01,58,21.80
2017,09,05,01,59,21.80
2017,09,05,02,00,21.80
2017,09,05,02,01,21.80
2017,09,05,02,02,21.70
2017,09,05,02,03,21.70
2017,09,05,02,04,21.70
2017,09,05,02,05,21.70
2017,09,05,02,06,21.70
2017,09,05,02,07,21.70
2017,09,05,02,08,21.70
2017,09,05,02,09,21.60
2017,09,05,02,10,21.60
2017,09,05,02,11,21.60
2017,09,05,02,12,21.60
2017,09,05,02,13,21.50
2017,09,05,02,14,21.50
2017,09,05,02,15,21.40
2017,09,05,02,16,21.40
2017,09,05,02,17,21.30
2017,09,05,02,18,21.30
2017,09,05,02,19,21.30
2017,09,05,02,20,21.20
2017,09,05,02,21,21.20
2017,09,05,02,22,21.20
2017,09,05,02,23,21.10
2017,09,05,02,24,21.10
2017,09,05,02,25,21.10
2017,09,05,02,26,21.00
2017,09,05,02,27,21.00
2017,09,05,02,28,21.00
2017,09,05,02,29,20.90
2017,09,05,02,30,20.90
2017,09,05,02,31,20.90
2017,09,05,02,32,20.90
2017,09,05,02,33,20.90
2017,09,05,02,34,20.80
2017,09,05,02,35,20.80
2017,09,05,02,36,20.80
2017,09,05,02,37,20.80
2017,09,05,02,38,20.80
2017,09,05,02,39,20.80
2017,09,05,02,40,20.80
2017,09,05,02,41,20.80
2017,09,05,02,42,20.80
2017,09,05,02,43,20.80
2017,09,05,02,44,20.80
2017,09,05,02,45,20.80
2017,09,05,02,46,20.80
2017,09,05,02,47,20.80
2017,09,05,02,48,20.70
2017,09,05,02,49,20.70
2017,09,05,02,50,20.70
2017,09,05,02,51,20.70
2017,09,05,02,52,20.70
2017,09,05,02,53,20.70
2017,09,05,02,54,20.70
2017,09,05,02,55,20.70
2017,09,05,02,56,20.70
2017,09,05,02,57,20.70
2017,09,05,02,58,20.70
2017,09,05,02,59,20.70
2017,09,05,03,00,20.70
2017,09,05,03,01,20.70
2017,09,05,03,02,20.70
2017,09,05,03,03,20.80
2017,09,05,03,04,20.80
2017,09,05,03,05,20.80
2017,09,05,03,06,20.80
2017,09,05,03,07,20.80
2017,09,05,03,08,20.80
2017,09,05,03,09,20.80
2017,09,05,03,10,20.80
2017,09,05,03,11,20.80
2017,09,05,03,12,20.80
2017,09,05,03,13,20.80
2017,09,05,03,14,20.80
2017,09,05,03,15,20.80
2017,09,05,03,16,20.80
2017,09,05,03,17,20.80
2017,09,05,03,18,20.80
2017,09,05,03,19,20.80
2017,09,05,03,20,20.80
2017,09,05,03,21,20.80
2017,09,05,03,22,20.80
2017,09,05,03,23,20.70
2017,09,05,03,24,20.70
2017,09,05,03,25,20.70
2017,09,05,03,26,20.70
2017,09,05,03,27,20.70
2017,09,05,03,28,20.70
2017,09,05,03,29,20.70
2017,09,05,03,30,20.70
2017,09,05,03,31,20.70
2017,09,05,03,32,20.70
2017,09,05,03,33,20.70
2017,09,05,03,34,20.70
2017,09,05,03,35,20.60
2017,09,05,03,36,20.60
2017,09,05,03,37,20.60
2017,09,05,03,38,20.60
2017,09,05,03,39,20.60
2017,09,05,03,40,20.60
2017,09,05,03,41,20.60
2017,09,05,03,42,20.60
2017,09,05,03,43,20.60
2017,09,05,03,44,20.50
2017,09,05,03,45,20.50
2017,09,05,03,46,20.50
2017,09,05,03,47,20.40
2017,09,05,03,48,20.40
2017,09,05,03,49,20.40
2017,09,05,03,50,20.40
2017,09,05,03,51,20.40
2017,09,05,03,52,20.40
2017,09,05,03,53,20.40
2017,09,05,03,54,20.40
2017,09,05,03,55,20.40
2017,09,05,03,56,20.40
2017,09,05,03,57,20.40
2017,09,05,03,58,20.40
2017,09,05,03,59,20.40
2017,09,05,04,00,20.40
2017,09,05,04,01,20.40
2017,09,05,04,02,20.40
2017,09,05,04,03,20.50
2017,09,05,04,04,20.50
2017,09,05,04,05,20.50
2017,09,05,04,06,20.60
2017,09,05,04,07,20.60
2017,09,05,04,08,20.60
2017,09,05,04,09,20.60
2017,09,05,04,10,20.70
2017,09,05,04,11,20.70
2017,09,05,04,12,20.70
2017,09,05,04,13,20.70
2017,09,05,04,14,20.80
2017,09,05,04,15,20.80
2017,09,05,04,16,20.80
2017,09,05,04,17,20.80
2017,09,05,04,18,20.80
2017,09,05,04,19,20.70
2017,09,05,04,20,20.70
2017,09,05,04,21,20.70
2017,09,05,04,22,20.70
2017,09,05,04,23,20.70
2017,09,05,04,24,20.60
2017,09,05,04,25,20.60
2017,09,05,04,26,20.60
2017,09,05,04,27,20.60
2017,09,05,04,28,20.50
2017,09,05,04,29,20.50
2017,09,05,04,30,20.50
2017,09,05,04,31,20.50
2017,09,05,04,32,20.60
2017,09,05,04,33,20.60
2017,09,05,04,34,20.60
2017,09,05,04,35,20.60
2017,09,05,04,36,20.60
2017,09,05,04,37,20.60
2017,09,05,04,38,20.60
2017,09,05,04,39,20.60
2017,09,05,04,40,20.60
2017,09,05,04,41,20.60
2017,09,05,04,42,20.70
2017,09,05,04,43,20.70
2017,09,05,04,44,20.70
2017,09,05,04,45,20.70
2017,09,05,04,46,20.70
2017,09,05,04,47,20.80
2017,09,05,04,48,20.80
2017,09,05,04,49,20.80
2017,09,05,04,50,20.80
2017,09,05,04,51,20.70
2017,09,05,04,52,20.70
2017,09,05,04,53,20.70
2017,09,05,04,54,20.70
2017,09,05,04,55,20.70
2017,09,05,04,56,20.70
2017,09,05,04,57,20.60
2017,09,05,04,58,20.60
2017,09,05,04,59,20.60
2017,09,05,05,00,20.60
2017,09,05,05,01,20.60
2017,09,05,05,02,20.60
2017,09,05,05,03,20.70
2017,09,05,05,04,20.70
2017,09,05,05,05,20.70
2017,09,05,05,06,20.80
2017,09,05,05,07,20.80
2017,09,05,05,08,20.80
2017,09,05,05,09,20.80
2017,09,05,05,10,20.80
2017,09,05,05,11,20.80
2017,09,05,05,12,20.70
2017,09,05,05,13,20.70
2017,09,05,05,14,20.70
2017,09,05,05,15,20.60
2017,09,05,05,16,20.60
2017,09,05,05,17,20.60
2017,09,05,05,18,20.60
2017,09,05,05,19,20.60
2017,09,05,05,20,20.60
2017,09,05,05,21,20.60
2017,09,05,05,22,20.60
2017,09,05,05,23,20.60
2017,09,05,05,24,20.60
2017,09,05,05,25,20.60
2017,09,05,05,26,20.60
2017,09,05,05,27,20.70
2017,09,05,05,28,20.70
2017,09,05,05,29,20.70
2017,09,05,05,30,20.70
2017,09,05,05,31,20.70
2017,09,05,05,32,20.70
2017,09,05,05,33,20.70
2017,09,05,05,34,20.70
2017,09,05,05,35,20.70
2017,09,05,05,36,20.70
2017,09,05,05,37,20.80
2017,09,05,05,38,20.80
2017,09,05,05,39,20.90
2017,09,05,05,40,21.00
2017,09,05,05,41,21.00
2017,09,05,05,42,21.10
2017,09,05,05,43,21.10
2017,09,05,05,44,21.10
2017,09,05,05,45,21.10
2017,09,05,05,46,21.00
2017,09,05,05,47,21.00
2017,09,05,05,48,21.00
2017,09,05,05,49,21.00
2017,09,05,05,50,21.00
2017,09,05,05,51,21.00
2017,09,05,05,52,21.10
2017,09,05,05,53,21.10
2017,09,05,05,54,21.10
2017,09,05,05,55,21.10
2017,09,05,05,56,21.00
2017,09,05,05,57,21.00
2017,09,05,05,58,21.00
2017,09,05,05,59,21.00
2017,09,05,06,00,21.00
2017,09,05,06,01,20.90
2017,09,05,06,02,20.90
2017,09,05,06,03,20.90
2017,09,05,06,04,20.90
2017,09,05,06,05,20.90
2017,09,05,06,06,20.80
2017,09,05,06,07,20.80
2017,09,05,06,08,20.80
2017,09,05,06,09,20.70
2017,09,05,06,10,20.70
2017,09,05,06,11,20.70
2017,09,05,06,12,20.70
2017,09,05,06,13,20.60
2017,09,05,06,14,20.60
2017,09,05,06,15,20.60
2017,09,05,06,16,20.60
2017,09,05,06,17,20.60
2017,09,05,06,18,20.60
2017,09,05,06,19,20.60
2017,09,05,06,20,20.50
2017,09,05,06,21,20.50
2017,09,05,06,22,20.50
2017,09,05,06,23,20.50
2017,09,05,06,24,20.50
2017,09,05,06,25,20.50
2017,09,05,06,26,20.50
2017,09,05,06,27,20.50
2017,09,05,06,28,20.50
2017,09,05,06,29,20.50
2017,09,05,06,30,20.50
2017,09,05,06,31,20.40
2017,09,05,06,32,20.40
2017,09,05,06,33,20.40
2017,09,05,06,34,20.40
2017,09,05,06,35,20.30
2017,09,05,06,36,20.30
2017,09,05,06,37,20.30
2017,09,05,06,38,20.30
2017,09,05,06,39,20.20
2017,09,05,06,40,20.20
2017,09,05,06,41,20.20
2017,09,05,06,42,20.20
2017,09,05,06,43,20.20
2017,09,05,06,44,20.10
2017,09,05,06,45,20.10
2017,09,05,06,46,20.10
2017,09,05,06,47,20.10
2017,09,05,06,48,20.10
2017,09,05,06,49,20.10
2017,09,05,06,50,20.10
2017,09,05,06,51,20.10
2017,09,05,06,52,20.10
2017,09,05,06,53,20.10
2017,09,05,06,54,20.20
2017,09,05,06,55,20.20
2017,09,05,06,56,20.20
2017,09,05,06,57,20.20
2017,09,05,06,58,20.20
2017,09,05,06,59,20.20
2017,09,05,07,00,20.20
2017,09,05,07,01,20.20
2017,09,05,07,02,20.10
2017,09,05,07,03,20.10
2017,09,05,07,04,20.10
2017,09,05,07,05,20.10
2017,09,05,07,06,20.10
2017,09,05,07,07,20.10
2017,09,05,07,08,20.10
2017,09,05,07,09,20.10
2017,09,05,07,10,20.10
2017,09,05,07,11,20.10
2017,09,05,07,12,20.10
2017,09,05,07,13,20.10
2017,09,05,07,14,20.10
2017,09,05,07,15,20.10
2017,09,05,07,16,20.10
2017,09,05,07,17,20.10
2017,09,05,07,18,20.10
2017,09,05,07,19,20.10
2017,09,05,07,20,20.10
2017,09,05,07,21,20.10
2017,09,05,07,22,20.10
2017,09,05,07,23,20.10
2017,09,05,07,24,20.10
2017,09,05,07,25,20.10
2017,09,05,07,26,20.10
2017,09,05,07,27,20.10
2017,09,05,07,28,20.20
2017,09,05,07,29,20.20
2017,09,05,07,30,20.20
2017,09,05,07,31,20.20
2017,09,05,07,32,20.20
2017,09,05,07,33,20.20
2017,09,05,07,34,20.30
2017,09,05,07,35,20.30
2017,09,05,07,36,20.30
2017,09,05,07,37,20.30
2017,09,05,07,38,20.30
2017,09,05,07,39,20.30
2017,09,05,07,40,20.30
2017,09,05,07,41,20.30
2017,09,05,07,42,20.30
2017,09,05,07,43,20.30
2017,09,05,07,44,20.20
2017,09,05,07,45,20.20
2017,09,05,07,46,20.20
2017,09,05,07,47,20.30
2017,09,05,07,48,20.30
2017,09,05,07,49,20.30
2017,09,05,07,50,20.30
2017,09,05,07,51,20.30
2017,09,05,07,52,20.30
2017,09,05,07,53,20.30
2017,09,05,07,54,20.30
2017,09,05,07,55,20.30
2017,09,05,07,56,20.40
2017,09,05,07,57,20.40
2017,09,05,07,58,20.40
2017,09,05,07,59,20.40
2017,09,05,08,00,20.40
2017,09,05,08,01,20.40
2017,09,05,08,02,20.50
2017,09,05,08,03,20.50
2017,09,05,08,04,20.50
2017,09,05,08,05,20.60
2017,09,05,08,06,20.60
2017,09,05,08,07,20.60
2017,09,05,08,08,20.70
2017,09,05,08,09,20.70
2017,09,05,08,10,20.70
2017,09,05,08,11,20.70
2017,09,05,08,12,20.80
2017,09,05,08,13,20.80
2017,09,05,08,14,20.80
2017,09,05,08,15,20.80
2017,09,05,08,16,20.80
2017,09,05,08,17,20.90
2017,09,05,08,18,20.90
2017,09,05,08,19,20.90
2017,09,05,08,20,21.00
2017,09,05,08,21,21.00
2017,09,05,08,22,21.10
2017,09,05,08,23,21.10
2017,09,05,08,24,21.10
2017,09,05,08,25,21.20
2017,09,05,08,26,21.20
2017,09,05,08,27,21.20
2017,09,05,08,28,21.20
2017,09,05,08,29,21.20
2017,09,05,08,30,21.20
2017,09,05,08,31,21.30
2017,09,05,08,32,21.30
2017,09,05,08,33,21.30
2017,09,05,08,34,21.30
2017,09,05,08,35,21.40
2017,09,05,08,36,21.40
2017,09,05,08,37,21.40
2017,09,05,08,38,21.50
2017,09,05,08,39,21.50
2017,09,05,08,40,21.60
2017,09,05,08,41,21.60
2017,09,05,08,42,21.60
2017,09,05,08,43,21.60
2017,09,05,08,44,21.60
2017,09,05,08,45,21.70
2017,09,05,08,46,21.70
2017,09,05,08,47,21.70
2017,09,05,08,48,21.70
2017,09,05,08,49,21.70
2017,09,05,08,50,21.70
2017,09,05,08,51,21.70
2017,09,05,08,52,21.70
2017,09,05,08,53,21.70
2017,09,05,08,54,21.70
2017,09,05,08,55,21.70
2017,09,05,08,56,21.60
2017,09,05,08,57,21.60
2017,09,05,08,58,21.60
2017,09,05,08,59,21.60
2017,09,05,09,00,21.60
2017,09,05,09,01,21.60
2017,09,05,09,02,21.60
2017,09,05,09,03,21.60
2017,09,05,09,04,21.60
2017,09,05,09,05,21.70
2017,09,05,09,06,21.70
2017,09,05,09,07,21.70
2017,09,05,09,08,21.70
2017,09,05,09,09,21.80
2017,09,05,09,10,21.80
2017,09,05,09,11,21.80
2017,09,05,09,12,21.90
2017,09,05,09,13,21.90
2017,09,05,09,14,21.90
2017,09,05,09,15,21.90
2017,09,05,09,16,21.90
2017,09,05,09,17,21.90
2017,09,05,09,18,21.90
2017,09,05,09,19,22.00
2017,09,05,09,20,22.00
2017,09,05,09,21,22.00
2017,09,05,09,22,22.00
2017,09,05,09,23,22.00
2017,09,05,09,24,22.10
2017,09,05,09,25,22.10
2017,09,05,09,26,22.10
2017,09,05,09,27,22.10
2017,09,05,09,28,22.10
2017,09,05,09,29,22.10
2017,09,05,09,30,22.10
2017,09,05,09,31,22.10
2017,09,05,09,32,22.10
2017,09,05,09,33,22.10
2017,09,05,09,34,22.10
2017,09,05,09,35,22.10
2017,09,05,09,36,22.20
2017,09,05,09,37,22.20
2017,09,05,09,38,22.20
2017,09,05,09,39,22.20
2017,09,05,09,40,22.20
2017,09,05,09,41,22.30
2017,09,05,09,42,22.30
2017,09,05,09,43,22.30
2017,09,05,09,44,22.30
2017,09,05,09,45,22.30
2017,09,05,09,46,22.30
2017,09,05,09,47,22.30
2017,09,05,09,48,22.30
2017,09,05,09,49,22.30
2017,09,05,09,50,22.40
2017,09,05,09,51,22.40
2017,09,05,09,52,22.40
2017,09,05,09,53,22.40
2017,09,05,09,54,22.40
2017,09,05,09,55,22.40
2017,09,05,09,56,22.50
2017,09,05,09,57,22.50
2017,09,05,09,58,22.50
2017,09,05,09,59,22.50
2017,09,05,10,00,22.50
2017,09,05,10,01,22.40
2017,09,05,10,02,22.40
2017,09,05,10,03,22.40
2017,09,05,10,04,22.40
2017,09,05,10,05,22.40
2017,09,05,10,06,22.40
2017,09,05,10,07,22.40
2017,09,05,10,08,22.40
2017,09,05,10,09,22.40
2017,09,05,10,10,22.40
2017,09,05,10,11,22.50
2017,09,05,10,12,22.50
2017,09,05,10,13,22.50
2017,09,05,10,14,22.60
2017,09,05,10,15,22.60
2017,09,05,10,16,22.60
2017,09,05,10,17,22.70
2017,09,05,10,18,22.70
2017,09,05,10,19,22.80
2017,09,05,10,20,22.80
2017,09,05,10,21,22.90
2017,09,05,10,22,22.90
2017,09,05,10,23,23.00
2017,09,05,10,24,23.10
2017,09,05,10,25,23.20
2017,09,05,10,26,23.30
2017,09,05,10,27,23.40
2017,09,05,10,28,23.40
2017,09,05,10,29,23.50
2017,09,05,10,30,23.60
2017,09,05,10,31,23.70
2017,09,05,10,32,23.80
2017,09,05,10,33,23.90
2017,09,05,10,34,24.00
2017,09,05,10,35,24.10
2017,09,05,10,36,24.20
2017,09,05,10,37,24.20
2017,09,05,10,38,24.20
2017,09,05,10,39,24.20
2017,09,05,10,40,24.20
2017,09,05,10,41,24.20
2017,09,05,10,42,24.20
2017,09,05,10,43,24.20
2017,09,05,10,44,24.20
2017,09,05,10,45,24.20
2017,09,05,10,46,24.30
2017,09,05,10,47,24.30
2017,09,05,10,48,24.40
2017,09,05,10,49,24.40
2017,09,05,10,50,24.50
2017,09,05,10,51,24.60
2017,09,05,10,52,24.60
2017,09,05,10,53,24.60
2017,09,05,10,54,24.60
2017,09,05,10,55,24.50
2017,09,05,10,56,24.50
2017,09,05,10,57,24.40
2017,09,05,10,58,24.30
2017,09,05,10,59,24.20
2017,09,05,11,00,24.10
2017,09,05,11,01,24.00
2017,09,05,11,02,23.90
2017,09,05,11,03,23.90
2017,09,05,11,04,23.90
2017,09,05,11,05,23.90
2017,09,05,11,06,23.90
2017,09,05,11,07,23.90
2017,09,05,11,08,23.90
2017,09,05,11,09,24.00
2017,09,05,11,10,24.00
2017,09,05,11,11,24.10
2017,09,05,11,12,24.10
2017,09,05,11,13,24.20
2017,09,05,11,14,24.20
2017,09,05,11,15,24.20
2017,09,05,11,16,24.30
2017,09,05,11,17,24.30
2017,09,05,11,18,24.30
2017,09,05,11,19,24.40
2017,09,05,11,20,24.40
2017,09,05,11,21,24.40
2017,09,05,11,22,24.50
2017,09,05,11,23,24.60
2017,09,05,11,24,24.60
2017,09,05,11,25,24.70
2017,09,05,11,26,24.70
2017,09,05,11,27,24.70
2017,09,05,11,28,24.70
2017,09,05,11,29,24.70
2017,09,05,11,30,24.70
2017,09,05,11,31,24.80
2017,09,05,11,32,24.80
2017,09,05,11,33,24.80
2017,09,05,11,34,24.80
2017,09,05,11,35,24.90
2017,09,05,11,36,24.90
2017,09,05,11,37,24.90
2017,09,05,11,38,24.90
2017,09,05,11,39,24.90
2017,09,05,11,40,24.90
2017,09,05,11,41,25.00
2017,09,05,11,42,25.00
2017,09,05,11,43,25.10
2017,09,05,11,44,25.10
2017,09,05,11,45,25.10
2017,09,05,11,46,25.20
2017,09,05,11,47,25.30
2017,09,05,11,48,25.30
2017,09,05,11,49,25.40
2017,09,05,11,50,25.50
2017,09,05,11,51,25.60
2017,09,05,11,52,25.70
2017,09,05,11,53,25.70
2017,09,05,11,54,25.80
2017,09,05,11,55,25.80
2017,09,05,11,56,25.80
2017,09,05,11,57,25.80
2017,09,05,11,58,25.80
2017,09,05,11,59,25.70
2017,09,05,12,00,25.60
2017,09,05,12,01,25.60
2017,09,05,12,02,25.50
2017,09,05,12,03,25.40
2017,09,05,12,04,25.40
2017,09,05,12,05,25.40
2017,09,05,12,06,25.30
2017,09,05,12,07,25.30
2017,09,05,12,08,25.20
2017,09,05,12,09,25.20
2017,09,05,12,10,25.20
2017,09,05,12,11,25.20
2017,09,05,12,12,25.20
2017,09,05,12,13,25.20
2017,09,05,12,14,25.20
2017,09,05,12,15,25.20
2017,09,05,12,16,25.20
2017,09,05,12,17,25.20
2017,09,05,12,18,25.20
2017,09,05,12,19,25.20
2017,09,05,12,20,25.20
2017,09,05,12,21,25.20
2017,09,05,12,22,25.20
2017,09,05,12,23,25.30
2017,09,05,12,24,25.30
2017,09,05,12,25,25.30
2017,09,05,12,26,25.30
2017,09,05,12,27,25.30
2017,09,05,12,28,25.40
2017,09,05,12,29,25.40
2017,09,05,12,30,25.40
2017,09,05,12,31,25.40
2017,09,05,12,32,25.40
2017,09,05,12,33,25.30
2017,09,05,12,34,25.30
2017,09,05,12,35,25.30
2017,09,05,12,36,25.30
2017,09,05,12,37,25.20
2017,09,05,12,38,25.20
2017,09,05,12,39,25.20
2017,09,05,12,40,25.20
2017,09,05,12,41,25.30
2017,09,05,12,42,25.30
2017,09,05,12,43,25.30
2017,09,05,12,44,25.30
2017,09,05,12,45,25.30
2017,09,05,12,46,25.20
2017,09,05,12,47,25.20
2017,09,05,12,48,25.20
2017,09,05,12,49,25.10
2017,09,05,12,50,25.10
2017,09,05,12,51,25.10
2017,09,05,12,52,25.10
2017,09,05,12,53,25.10
2017,09,05,12,54,25.10
2017,09,05,12,55,25.10
2017,09,05,12,56,25.10
2017,09,05,12,57,25.20
2017,09,05,12,58,25.20
2017,09,05,12,59,25.30
2017,09,05,13,00,25.30
2017,09,05,13,01,25.30
2017,09,05,13,02,25.40
2017,09,05,13,03,25.40
2017,09,05,13,04,25.40
2017,09,05,13,05,25.40
2017,09,05,13,06,25.30
2017,09,05,13,07,25.30
2017,09,05,13,08,25.30
2017,09,05,13,09,25.20
2017,09,05,13,10,25.20
2017,09,05,13,11,25.20
2017,09,05,13,12,25.20
2017,09,05,13,13,25.10
2017,09,05,13,14,25.10
2017,09,05,13,15,25.10
2017,09,05,13,16,25.20
2017,09,05,13,17,25.20
2017,09,05,13,18,25.20
2017,09,05,13,19,25.30
2017,09,05,13,20,25.30
2017,09,05,13,21,25.30
2017,09,05,13,22,25.40
2017,09,05,13,23,25.40
2017,09,05,13,24,25.40
2017,09,05,13,25,25.50
2017,09,05,13,26,25.60
2017,09,05,13,27,25.60
2017,09,05,13,28,25.70
2017,09,05,13,29,25.70
2017,09,05,13,30,25.80
2017,09,05,13,31,25.80
2017,09,05,13,32,25.80
2017,09,05,13,33,25.80
2017,09,05,13,34,25.90
2017,09,05,13,35,25.90
2017,09,05,13,36,25.90
2017,09,05,13,37,26.00
2017,09,05,13,38,26.00
2017,09,05,13,39,26.10
2017,09,05,13,40,26.10
2017,09,05,13,41,26.10
2017,09,05,13,42,26.10
2017,09,05,13,43,26.10
2017,09,05,13,44,26.20
2017,09,05,13,45,26.20
2017,09,05,13,46,26.20
2017,09,05,13,47,26.30
2017,09,05,13,48,26.30
2017,09,05,13,49,26.30
2017,09,05,13,50,26.30
2017,09,05,13,51,26.30
2017,09,05,13,52,26.30
2017,09,05,13,53,26.30
2017,09,05,13,54,26.20
2017,09,05,13,55,26.20
2017,09,05,13,56,26.10
2017,09,05,13,57,26.10
2017,09,05,13,58,26.10
2017,09,05,13,59,26.00
2017,09,05,14,00,26.00
2017,09,05,14,01,25.90
2017,09,05,14,02,25.90
2017,09,05,14,03,25.80
2017,09,05,14,04,25.80
2017,09,05,14,05,25.70
2017,09,05,14,06,25.70
2017,09,05,14,07,25.60
2017,09,05,14,08,25.60
2017,09,05,14,09,25.60
2017,09,05,14,10,25.50
2017,09,05,14,11,25.50
2017,09,05,14,12,25.50
2017,09,05,14,13,25.60
2017,09,05,14,14,25.60
2017,09,05,14,15,25.60
2017,09,05,14,16,25.60
2017,09,05,14,17,25.70
2017,09,05,14,18,25.70
2017,09,05,14,19,25.70
2017,09,05,14,20,25.70
2017,09,05,14,21,25.70
2017,09,05,14,22,25.80
2017,09,05,14,23,25.80
2017,09,05,14,24,25.80
2017,09,05,14,25,25.80
2017,09,05,14,26,25.80
2017,09,05,14,27,25.80
2017,09,05,14,28,25.80
2017,09,05,14,29,25.80
2017,09,05,14,30,25.90
2017,09,05,14,31,25.90
2017,09,05,14,32,25.90
2017,09,05,14,33,26.00
2017,09,05,14,34,26.00
2017,09,05,14,35,26.10
2017,09,05,14,36,26.10
2017,09,05,14,37,26.10
2017,09,05,14,38,26.20
2017,09,05,14,39,26.20
2017,09,05,14,40,26.30
2017,09,05,14,41,26.30
2017,09,05,14,42,26.30
2017,09,05,14,43,26.30
2017,09,05,14,44,26.30
2017,09,05,14,45,26.30
2017,09,05,14,46,26.30
2017,09,05,14,47,26.30
2017,09,05,14,48,26.30
2017,09,05,14,49,26.30
2017,09,05,14,50,26.30
2017,09,05,14,51,26.30
2017,09,05,14,52,26.30
2017,09,05,14,53,26.30
2017,09,05,14,54,26.40
2017,09,05,14,55,26.40
2017,09,05,14,56,26.40
2017,09,05,14,57,26.30
2017,09,05,14,58,26.30
2017,09,05,14,59,26.30
2017,09,05,15,00,26.20
2017,09,05,15,01,26.20
2017,09,05,15,02,26.20
2017,09,05,15,03,26.20
2017,09,05,15,04,26.20
2017,09,05,15,05,26.20
2017,09,05,15,06,26.20
2017,09,05,15,07,26.20
2017,09,05,15,08,26.20
2017,09,05,15,09,26.20
2017,09,05,15,10,26.20
2017,09,05,15,11,26.30
2017,09,05,15,12,26.30
2017,09,05,15,13,26.40
2017,09,05,15,14,26.40
2017,09,05,15,15,26.50
2017,09,05,15,16,26.50
2017,09,05,15,17,26.60
2017,09,05,15,18,26.60
2017,09,05,15,19,26.70
2017,09,05,15,20,26.70
2017,09,05,15,21,26.70
2017,09,05,15,22,26.80
2017,09,05,15,23,26.80
2017,09,05,15,24,26.90
2017,09,05,15,25,26.90
2017,09,05,15,26,27.00
2017,09,05,15,27,27.00
2017,09,05,15,28,27.10
2017,09,05,15,29,27.10
2017,09,05,15,30,27.10
2017,09,05,15,31,27.20
2017,09,05,15,32,27.20
2017,09,05,15,33,27.20
2017,09,05,15,34,27.10
2017,09,05,15,35,27.10
2017,09,05,15,36,27.10
2017,09,05,15,37,27.10
2017,09,05,15,38,27.10
2017,09,05,15,39,27.00
2017,09,05,15,40,27.00
2017,09,05,15,41,27.00
2017,09,05,15,42,26.90
2017,09,05,15,43,26.90
2017,09,05,15,44,26.80
2017,09,05,15,45,26.80
2017,09,05,15,46,26.80
2017,09,05,15,47,26.80
2017,09,05,15,48,26.80
2017,09,05,15,49,26.90
2017,09,05,15,50,26.90
2017,09,05,15,51,27.00
2017,09,05,15,52,27.10
2017,09,05,15,53,27.20
2017,09,05,15,54,27.20
2017,09,05,15,55,27.30
2017,09,05,15,56,27.40
2017,09,05,15,57,27.50
2017,09,05,15,58,27.50
2017,09,05,15,59,27.50
2017,09,05,16,00,27.50
2017,09,05,16,01,27.40
2017,09,05,16,02,27.40
2017,09,05,16,03,27.40
2017,09,05,16,04,27.30
2017,09,05,16,05,27.30
2017,09,05,16,06,27.30
2017,09,05,16,07,27.20
2017,09,05,16,08,27.20
2017,09,05,16,09,27.20
2017,09,05,16,10,27.10
2017,09,05,16,11,27.10
2017,09,05,16,12,27.10
2017,09,05,16,13,27.10
2017,09,05,16,14,27.20
2017,09,05,16,15,27.20
2017,09,05,16,16,27.20
2017,09,05,16,17,27.30
2017,09,05,16,18,27.40
2017,09,05,16,19,27.50
2017,09,05,16,20,27.50
2017,09,05,16,21,27.60
2017,09,05,16,22,27.60
2017,09,05,16,23,27.60
2017,09,05,16,24,27.60
2017,09,05,16,25,27.60
2017,09,05,16,26,27.60
2017,09,05,16,27,27.60
2017,09,05,16,28,27.60
2017,09,05,16,29,27.60
2017,09,05,16,30,27.60
2017,09,05,16,31,27.50
2017,09,05,16,32,27.40
2017,09,05,16,33,27.30
2017,09,05,16,34,27.30
2017,09,05,16,35,27.20
2017,09,05,16,36,27.10
2017,09,05,16,37,27.10
2017,09,05,16,38,27.00
2017,09,05,16,39,27.00
2017,09,05,16,40,26.90
2017,09,05,16,41,26.90
2017,09,05,16,42,26.90
2017,09,05,16,43,26.80
2017,09,05,16,44,26.80
2017,09,05,16,45,26.80
2017,09,05,16,46,26.80
2017,09,05,16,47,26.70
2017,09,05,16,48,26.70
2017,09,05,16,49,26.60
2017,09,05,16,50,26.50
2017,09,05,16,51,26.40
2017,09,05,16,52,26.30
2017,09,05,16,53,26.30
2017,09,05,16,54,26.30
2017,09,05,16,55,26.30
2017,09,05,16,56,26.30
2017,09,05,16,57,26.30
2017,09,05,16,58,26.40
2017,09,05,16,59,26.50
2017,09,05,17,00,26.50
2017,09,05,17,01,26.60
2017,09,05,17,02,26.60
2017,09,05,17,03,26.70
2017,09,05,17,04,26.70
2017,09,05,17,05,26.80
2017,09,05,17,06,26.80
2017,09,05,17,07,26.90
2017,09,05,17,08,26.90
2017,09,05,17,09,26.90
2017,09,05,17,10,26.90
2017,09,05,17,11,26.90
2017,09,05,17,12,27.00
2017,09,05,17,13,27.00
2017,09,05,17,14,26.90
2017,09,05,17,15,26.90
2017,09,05,17,16,26.90
2017,09,05,17,17,26.80
2017,09,05,17,18,26.80
2017,09,05,17,19,26.80